| time (UTC) | temp C | wind direction | speed KPH | gust KPH | rain 1hr cm | rain 24hr cm | rain mn cm | humidity % | barometer mb |
| 20260903020006 | 17 | 109 | 0.0 | 0.0 | 0.00 | 0.03 | 0.00 | 78 | 1019.7 |
| 20260903014504 | 17 | 109 | 0.0 | 0.0 | 0.00 | 0.03 | 0.00 | 78 | 1019.3 |
| 20260903013003 | 18 | 108 | 0.0 | 0.0 | 0.00 | 0.03 | 0.00 | 78 | 1019.1 |
| 20260903011501 | 18 | 109 | 0.0 | 0.0 | 0.00 | 0.03 | 0.00 | 79 | 1019.0 |
| 20260903010056 | 18 | 109 | 0.0 | 1.6 | 0.00 | 0.03 | 0.00 | 80 | 1019.3 |
| 20260903004556 | 18 | 108 | 0.0 | 0.0 | 0.00 | 0.03 | 0.00 | 80 | 1019.6 |
| 20260903003053 | 18 | 108 | 0.0 | 0.0 | 0.00 | 0.03 | 0.00 | 79 | 1019.5 |
| 20260903001553 | 18 | 108 | 0.0 | 0.0 | 0.00 | 0.03 | 0.00 | 78 | 1019.4 |
| 20260903000049 | 18 | 108 | 0.0 | 0.0 | 0.00 | 0.03 | 0.00 | 77 | 1019.5 |
| 20260902234549 | 19 | 108 | 0.0 | 0.0 | 0.00 | 0.03 | 0.00 | 77 | 1019.7 |
| 20260902233041 | 19 | 108 | 0.0 | 0.0 | 0.00 | 0.03 | 0.00 | 76 | 1020.0 |
| 20260902231541 | 20 | 108 | 0.0 | 0.0 | 0.00 | 0.03 | 0.00 | 74 | 1020.4 |
| 20260902230036 | 20 | 108 | 0.0 | 0.0 | 0.00 | 0.03 | 0.00 | 74 | 1020.3 |
| 20260902224533 | 20 | 108 | 0.0 | 0.0 | 0.00 | 0.03 | 0.00 | 73 | 1020.5 |
| 20260902223031 | 20 | 108 | 0.0 | 0.0 | 0.00 | 0.03 | 0.00 | 72 | 1020.6 |
| 20260902221533 | 21 | 108 | 0.0 | 0.0 | 0.00 | 0.03 | 0.03 | 71 | 1020.6 |
| 20260902220031 | 21 | 108 | 0.0 | 0.0 | 0.00 | 0.03 | 0.03 | 70 | 1020.3 |
| 20260902214526 | 22 | 108 | 0.0 | 0.0 | 0.00 | 0.03 | 0.03 | 67 | 1020.1 |
| 20260902213028 | 22 | 157 | 0.0 | 4.8 | 0.00 | 0.03 | 0.03 | 68 | 1019.9 |
| 20260902211522 | 22 | 132 | 0.0 | 6.4 | 0.00 | 0.15 | 0.03 | 67 | 1019.5 |
| 20260902210023 | 22 | 97 | 0.0 | 1.6 | 0.00 | 0.15 | 0.03 | 71 | 1019.5 |
| 20260902204521 | 22 | 98 | 0.0 | 1.6 | 0.00 | 0.15 | 0.03 | 72 | 1019.7 |
| 20260902203016 | 22 | 98 | 0.0 | 0.0 | 0.00 | 0.15 | 0.03 | 71 | 1020.1 |
| 20260902201519 | 22 | 98 | 0.0 | 0.0 | 0.00 | 0.18 | 0.03 | 73 | 1020.5 |
| 20260902200013 | 22 | 98 | 0.0 | 0.0 | 0.00 | 0.18 | 0.03 | 72 | 1020.4 |
| 20260902194520 | 22 | 98 | 0.0 | 1.6 | 0.00 | 0.18 | 0.03 | 71 | 1020.4 |
| 20260902193013 | 22 | 99 | 0.0 | 1.6 | 0.00 | 0.18 | 0.03 | 69 | 1020.4 |
| 20260902191514 | 22 | 97 | 0.0 | 0.0 | 0.00 | 0.33 | 0.03 | 69 | 1020.5 |
| 20260902190108 | 22 | 99 | 0.0 | 4.8 | 0.00 | 0.33 | 0.03 | 68 | 1020.7 |
| 20260902184508 | 23 | 193 | 0.0 | 1.6 | 0.03 | 0.33 | 0.03 | 68 | 1020.7 |
| 20260902183006 | 22 | 88 | 0.0 | 4.8 | 0.03 | 0.33 | 0.03 | 68 | 1020.8 |
| 20260902181506 | 22 | 82 | 0.0 | 1.6 | 0.03 | 0.38 | 0.03 | 68 | 1020.8 |
| 20260902180035 | 23 | 82 | 0.0 | 12.9 | 0.03 | 0.38 | 0.03 | 68 | 1020.6 |
| 20260902174533 | 22 | 167 | 0.0 | 9.7 | 0.00 | 0.36 | 0.00 | 70 | 1020.6 |
| 20260902173101 | 22 | 87 | 0.0 | 1.6 | 0.00 | 0.36 | 0.00 | 70 | 1020.8 |
| 20260902173000 | 22 | 87 | 0.0 | 1.6 | 0.00 | 0.36 | 0.00 | 70 | 1020.9 |
| 20260902171608 | 22 | 98 | 0.0 | 0.0 | 0.00 | 0.71 | 0.00 | 69 | 1021.0 |
| 20260902170056 | 22 | 168 | 0.0 | 14.5 | 0.00 | 0.71 | 0.00 | 69 | 1021.0 |
| 20260902164555 | 22 | 74 | 0.0 | 9.7 | 0.00 | 0.71 | 0.00 | 70 | 1021.2 |
| 20260902163055 | 21 | 107 | 0.0 | 6.4 | 0.00 | 0.71 | 0.00 | 72 | 1021.3 |
| 20260902161551 | 21 | 114 | 0.0 | 6.4 | 0.00 | 0.81 | 0.00 | 71 | 1021.4 |
| 20260902160106 | 21 | 120 | 0.0 | 1.6 | 0.00 | 0.81 | 0.00 | 72 | 1021.5 |
| 20260902154555 | 21 | 125 | 0.0 | 9.7 | 0.00 | 0.81 | 0.00 | 73 | 1021.6 |
| 20260902153044 | 20 | 90 | 0.0 | 1.6 | 0.00 | 0.81 | 0.00 | 74 | 1022.0 |
| 20260902151542 | 20 | 54 | 0.0 | 1.6 | 0.00 | 1.02 | 0.00 | 77 | 1021.9 |
| 20260902150040 | 20 | 105 | 0.0 | 0.0 | 0.00 | 1.02 | 0.00 | 79 | 1022.0 |
| 20260902144510 | 20 | 105 | 0.0 | 1.6 | 0.00 | 1.02 | 0.00 | 81 | 1022.0 |
| 20260902143006 | 19 | 102 | 1.6 | 11.3 | 0.00 | 1.02 | 0.00 | 81 | 1022.0 |
| 20260902141552 | 19 | 101 | 0.0 | 0.0 | 0.00 | 1.55 | 0.00 | 84 | 1021.8 |
| 20260902140035 | 18 | 102 | 0.0 | 3.2 | 0.00 | 1.55 | 0.00 | 86 | 1021.7 |
| 20260902134519 | 18 | 105 | 0.0 | 9.7 | 0.00 | 1.55 | 0.00 | 87 | 1021.6 |
| 20260902133018 | 17 | 111 | 0.0 | 1.6 | 0.00 | 1.55 | 0.00 | 88 | 1021.4 |
| 20260902131516 | 17 | 116 | 0.0 | 11.3 | 0.00 | 1.96 | 0.00 | 89 | 1021.3 |
| 20260902130013 | 17 | 95 | 0.0 | 12.9 | 0.00 | 1.96 | 0.00 | 89 | 1021.2 |
| 20260902123020 | 17 | 88 | 0.0 | 0.0 | 0.00 | 1.96 | 0.00 | 89 | 1021.4 |
| 20260902121508 | 16 | 88 | 0.0 | 9.7 | 0.00 | 2.21 | 0.00 | 90 | 1021.5 |
| 20260902120005 | 16 | 92 | 0.0 | 4.8 | 0.00 | 2.21 | 0.00 | 90 | 1021.5 |
| 20260902114501 | 16 | 93 | 0.0 | 0.0 | 0.00 | 2.21 | 0.00 | 90 | 1021.6 |
| 20260902113059 | 16 | 93 | 0.0 | 4.8 | 0.00 | 2.21 | 0.00 | 90 | 1021.6 |
| 20260902111601 | 16 | 92 | 0.0 | 6.4 | 0.00 | 2.24 | 0.00 | 90 | 1021.6 |
| 20260902110104 | 16 | 93 | 0.0 | 4.8 | 0.00 | 2.24 | 0.00 | 90 | 1021.4 |
| 20260902104537 | 15 | 92 | 0.0 | 0.0 | 0.00 | 2.24 | 0.00 | 90 | 1021.3 |
| 20260902103039 | 16 | 92 | 0.0 | 0.0 | 0.00 | 2.24 | 0.00 | 90 | 1021.2 |
| 20260902101547 | 15 | 92 | 0.0 | 0.0 | 0.00 | 2.24 | 0.00 | 90 | 1021.0 |
| 20260902100045 | 15 | 92 | 0.0 | 0.0 | 0.00 | 2.24 | 0.00 | 90 | 1020.9 |
| 20260902094544 | 15 | 92 | 0.0 | 0.0 | 0.00 | 2.24 | 0.00 | 90 | 1020.7 |
| 20260902093040 | 15 | 92 | 0.0 | 0.0 | 0.00 | 2.24 | 0.00 | 90 | 1020.4 |
| 20260902091534 | 15 | 90 | 0.0 | 0.0 | 0.00 | 2.24 | 0.00 | 90 | 1020.3 |
| 20260902090033 | 15 | 90 | 0.0 | 0.0 | 0.00 | 2.24 | 0.00 | 90 | 1020.4 |
| 20260902084538 | 15 | 90 | 0.0 | 0.0 | 0.00 | 2.24 | 0.00 | 90 | 1020.4 |
| 20260902083029 | 15 | 90 | 0.0 | 0.0 | 0.00 | 2.24 | 0.00 | 90 | 1020.2 |
| 20260902081530 | 15 | 90 | 0.0 | 0.0 | 0.00 | 2.24 | 0.00 | 90 | 1020.1 |
| 20260902080028 | 15 | 90 | 0.0 | 0.0 | 0.00 | 2.24 | 0.00 | 90 | 1020.3 |
| 20260902074557 | 15 | 90 | 0.0 | 0.0 | 0.00 | 2.24 | 0.00 | 90 | 1020.0 |
| 20260902073053 | 15 | 90 | 0.0 | 0.0 | 0.00 | 2.24 | 0.00 | 90 | 1020.1 |
| 20260902071548 | 15 | 92 | 0.0 | 0.0 | 0.00 | 2.24 | 0.00 | 90 | 1020.3 |
| 20260902070048 | 15 | 92 | 0.0 | 0.0 | 0.00 | 2.24 | 0.00 | 91 | 1020.2 |
| 20260902064547 | 15 | 92 | 0.0 | 0.0 | 0.00 | 2.24 | 0.00 | 91 | 1020.4 |
| 20260902061513 | 15 | 92 | 0.0 | 0.0 | 0.00 | 2.24 | 0.00 | 91 | 1020.3 |
| 20260902060010 | 15 | 92 | 0.0 | 0.0 | 0.00 | 2.24 | 0.00 | 91 | 1020.3 |
| 20260902054545 | 15 | 92 | 0.0 | 0.0 | 0.00 | 2.24 | 0.00 | 91 | 1020.0 |
| 20260902053034 | 15 | 92 | 0.0 | 0.0 | 0.00 | 2.24 | 0.00 | 91 | 1019.7 |
| 20260902051531 | 15 | 92 | 0.0 | 0.0 | 0.00 | 2.24 | 0.00 | 91 | 1019.7 |
| 20260902050029 | 15 | 92 | 0.0 | 0.0 | 0.00 | 2.24 | 0.00 | 91 | 1019.9 |
| 20260902044528 | 15 | 92 | 0.0 | 0.0 | 0.00 | 2.24 | 0.00 | 91 | 1019.8 |
| 20260902043027 | 15 | 92 | 0.0 | 0.0 | 0.00 | 2.24 | 0.00 | 91 | 1019.7 |
| 20260902041525 | 15 | 92 | 0.0 | 0.0 | 0.00 | 2.24 | 0.00 | 91 | 1019.7 |
| 20260902040023 | 15 | 92 | 0.0 | 0.0 | 0.00 | 2.24 | 0.00 | 91 | 1019.3 |
| 20260902034521 | 15 | 92 | 0.0 | 0.0 | 0.00 | 2.24 | 0.00 | 91 | 1019.2 |
| 20260902033021 | 15 | 92 | 0.0 | 0.0 | 0.00 | 2.24 | 0.00 | 91 | 1019.1 |
| 20260902031518 | 15 | 92 | 0.0 | 0.0 | 0.00 | 2.24 | 0.00 | 91 | 1018.8 |
| 20260902030017 | 15 | 92 | 0.0 | 0.0 | 0.00 | 2.24 | 0.00 | 91 | 1018.8 |
| 20260902024516 | 15 | 92 | 0.0 | 0.0 | 0.00 | 2.24 | 0.00 | 91 | 1019.3 |
| 20260902023016 | 15 | 92 | 0.0 | 0.0 | 0.00 | 2.24 | 0.00 | 91 | 1018.9 |